Pagrindinis puslapis
METAR-TAF:

METAR-TAF

Oro uostai :

Joensū, Suomija

platuma: 62-40N, ilguma: 029-38E, Aukštis: 119 m

Dabartinis oras

Ataskaita buvo paskelbta 27 minutes, ne 12:20 UTC
Vėjas 10 kt iš Šiaurės/Šiaurės Rytų, svyruoja nuo Šiaurės/Šiaurės Vakarų ir Rytų/Šiaurės Rytų
Temperatūra 15°C
Drėgmė 36%
Slėgis 1027 hPa
Matomumas 10 km arba daugiau
nėra debesų žemiau 1500 m ir nėra kamuolinių lietaus debesų

METAR: EFJO 311220Z AUTO 02010KT 340V070 CAVOK 15/00 Q1027

Laikas: 15:47 (12:47 UTC)


TAF: trūkstamas

Orai ataskaitas ir orų prognozės (METAR, TAF).

turimą stotys yra geltonos ir raudonos taškus žemėlapyje.

Perkelti pele per norėdami pamatyti stoties vardą.

Tada spustelėkite, norėdami matyti oro stebėjimo ir prognozės.

Norėdami pakeisti žemėlapį: spustelėkite ant žalios mygtukų su juodo kryžiaus žemyn,; žalią mygtuką su brūkšneliu, jei norite nutolinti; arba žalių rodyklių gretimoms žemėlapius.


METAR-TAF: